When you browse on this site, cookies collect data to enhance your experience and personalize the content and advertising you see.
Visit our Privacy Policy to learn more. By continuing to use the site, you agree to this use of cookies and data.
  • En España
  • Lista de países
  • Para 7 días
  • Temperatura del agua
  • Mapa Satelital
  • El tiempo en el mapa
  • Informadores
  • user-avatar
    Iniciar sesión

    Tiempo cada hora Santa Fe

    Hoy, 21 Julio, Domingo

    Tiempo Temperatura Precipitaciones Viento Presión Humedad
    00:00 +21°C° 0 mm 6 mps 750 mmHg 74%
    01:00 +22°C° 0 mm 7 mps 749 mmHg 73%
    02:00 +22°C° 0 mm 8 mps 749 mmHg 72%
    03:00 +22°C° 0 mm 8 mps 748 mmHg 70%
    04:00 +23°C° 0 mm 8 mps 748 mmHg 68%
    05:00 +23°C° 0 mm 8 mps 747 mmHg 66%
    06:00 +23°C° 0 mm 8 mps 747 mmHg 65%
    07:00 +23°C° 0 mm 8 mps 748 mmHg 65%
    08:00 +24°C° 0 mm 9 mps 748 mmHg 64%
    09:00 +26°C° 0 mm 9 mps 748 mmHg 58%
    10:00 +28°C° 0 mm 10 mps 748 mmHg 53%
    11:00 +29°C° 0 mm 10 mps 748 mmHg 48%
    12:00 +31°C° 0 mm 9 mps 748 mmHg 46%
    13:00 +32°C° 0 mm 8 mps 747 mmHg 45%
    14:00 +32°C° 0 mm 7 mps 746 mmHg 44%
    15:00 +30°C° 0 mm 6 mps 747 mmHg 48%
    16:00 +29°C° 0 mm 4 mps 748 mmHg 53%
    17:00 +27°C° 0 mm 2 mps 748 mmHg 58%
    18:00 +25°C° 0.4 mm 4 mps 749 mmHg 64%
    19:00 +21°C° 0.4 mm 6 mps 751 mmHg 69%
    20:00 +17°C° 0.4 mm 8 mps 752 mmHg 74%
    21:00 +16°C° 0.3 mm 8 mps 753 mmHg 70%
    22:00 +15°C° 0.3 mm 8 mps 754 mmHg 66%
    23:00 +12°C° 0.3 mm 8 mps 756 mmHg 62%

    Mañana, 22 Julio, Lunes

    Tiempo Temperatura Precipitaciones Viento Presión Humedad
    00:00 +12°C° 0.3 mm 8 mps 756 mmHg 59%
    01:00 +12°C° 0.3 mm 7 mps 757 mmHg 56%
    02:00 +13°C° 0.3 mm 6 mps 758 mmHg 52%
    03:00 +13°C° 0 mm 6 mps 758 mmHg 49%
    04:00 +13°C° 0 mm 6 mps 758 mmHg 45%
    05:00 +14°C° 0 mm 6 mps 759 mmHg 41%
    06:00 +13°C° 0 mm 6 mps 759 mmHg 41%
    07:00 +13°C° 0 mm 5 mps 760 mmHg 41%
    08:00 +13°C° 0 mm 5 mps 761 mmHg 41%
    09:00 +13°C° 0 mm 5 mps 761 mmHg 40%
    10:00 +14°C° 0 mm 5 mps 762 mmHg 39%
    11:00 +14°C° 0 mm 5 mps 763 mmHg 39%
    12:00 +14°C° 0 mm 5 mps 762 mmHg 39%
    13:00 +13°C° 0 mm 5 mps 762 mmHg 39%
    14:00 +13°C° 0 mm 5 mps 762 mmHg 38%
    15:00 +13°C° 0 mm 4 mps 762 mmHg 39%
    16:00 +13°C° 0 mm 4 mps 762 mmHg 39%
    17:00 +12°C° 0 mm 4 mps 763 mmHg 40%
    18:00 +12°C° 0 mm 4 mps 763 mmHg 42%
    19:00 +11°C° 0 mm 4 mps 763 mmHg 43%
    20:00 +11°C° 0 mm 4 mps 763 mmHg 45%
    21:00 +11°C° 0 mm 4 mps 764 mmHg 46%
    22:00 +11°C° 0 mm 4 mps 764 mmHg 47%
    23:00 +11°C° 0 mm 4 mps 764 mmHg 48%

    Pasado mañana, 23 Julio, Martes

    Tiempo Temperatura Precipitaciones Viento Presión Humedad
    00:00 +11°C° 0 mm 4 mps 764 mmHg 50%
    01:00 +11°C° 0 mm 4 mps 764 mmHg 51%
    02:00 +11°C° 0 mm 4 mps 764 mmHg 53%
    03:00 +11°C° 0 mm 4 mps 764 mmHg 54%
    04:00 +10°C° 0 mm 4 mps 764 mmHg 56%
    05:00 +10°C° 0 mm 4 mps 765 mmHg 57%
    06:00 +10°C° 0 mm 4 mps 765 mmHg 58%
    07:00 +9°C° 0 mm 5 mps 765 mmHg 60%
    08:00 +8°C° 0 mm 5 mps 766 mmHg 61%
    09:00 +9°C° 0 mm 5 mps 766 mmHg 58%
    10:00 +10°C° 0 mm 5 mps 766 mmHg 56%
    11:00 +12°C° 0 mm 5 mps 766 mmHg 54%
    12:00 +12°C° 0 mm 5 mps 766 mmHg 53%
    13:00 +12°C° 0 mm 5 mps 766 mmHg 53%
    14:00 +12°C° 0 mm 4 mps 766 mmHg 52%
    15:00 +12°C° 0 mm 4 mps 766 mmHg 52%
    16:00 +12°C° 0 mm 4 mps 766 mmHg 51%
    17:00 +11°C° 0 mm 4 mps 766 mmHg 51%
    18:00 +11°C° 0 mm 4 mps 767 mmHg 51%
    19:00 +11°C° 0 mm 4 mps 767 mmHg 51%
    20:00 +10°C° 0 mm 4 mps 767 mmHg 51%
    21:00 +10°C° 0 mm 4 mps 767 mmHg 52%
    22:00 +10°C° 0 mm 3 mps 767 mmHg 53%
    23:00 +9°C° 0 mm 3 mps 767 mmHg 54%

    24 Julio, Miércoles

    Tiempo Temperatura Precipitaciones Viento Presión Humedad
    00:00 +9°C° 0 mm 3 mps 768 mmHg 57%
    01:00 +8°C° 0 mm 3 mps 768 mmHg 61%
    02:00 +8°C° 0 mm 3 mps 769 mmHg 64%
    03:00 +7°C° 0 mm 3 mps 769 mmHg 63%
    04:00 +7°C° 0 mm 3 mps 769 mmHg 62%
    05:00 +7°C° 0 mm 3 mps 769 mmHg 62%
    06:00 +5°C° 0 mm 3 mps 769 mmHg 61%
    07:00 +5°C° 0 mm 3 mps 770 mmHg 59%
    08:00 +5°C° 0 mm 3 mps 770 mmHg 58%
    09:00 +7°C° 0 mm 4 mps 770 mmHg 51%
    10:00 +10°C° 0 mm 4 mps 771 mmHg 44%
    11:00 +12°C° 0 mm 5 mps 771 mmHg 36%
    12:00 +13°C° 0 mm 5 mps 771 mmHg 35%
    13:00 +14°C° 0 mm 4 mps 770 mmHg 34%
    14:00 +14°C° 0 mm 4 mps 770 mmHg 33%
    15:00 +13°C° 0 mm 4 mps 770 mmHg 36%
    16:00 +12°C° 0 mm 3 mps 770 mmHg 40%
    17:00 +12°C° 0 mm 2 mps 770 mmHg 44%
    18:00 +10°C° 0 mm 2 mps 770 mmHg 47%
    19:00 +9°C° 0 mm 2 mps 771 mmHg 50%
    20:00 +8°C° 0 mm 2 mps 771 mmHg 52%
    21:00 +8°C° 0 mm 2 mps 771 mmHg 54%
    22:00 +7°C° 0 mm 2 mps 772 mmHg 56%
    23:00 +7°C° 0 mm 2 mps 772 mmHg 58%

    25 Julio, Jueves

    Tiempo Temperatura Precipitaciones Viento Presión Humedad
    00:00 +6°C° 0 mm 2 mps 772 mmHg 61%
    01:00 +6°C° 0 mm 2 mps 772 mmHg 63%
    02:00 +5°C° 0 mm 2 mps 772 mmHg 65%
    03:00 +5°C° 0 mm 2 mps 772 mmHg 67%
    04:00 +5°C° 0 mm 2 mps 772 mmHg 68%
    05:00 +4°C° 0 mm 2 mps 771 mmHg 70%
    06:00 +5°C° 0 mm 2 mps 772 mmHg 68%
    07:00 +5°C° 0 mm 2 mps 772 mmHg 67%
    08:00 +5°C° 0 mm 2 mps 772 mmHg 65%
    09:00 +7°C° 0 mm 2 mps 772 mmHg 60%
    10:00 +9°C° 0 mm 3 mps 772 mmHg 56%
    11:00 +10°C° 0 mm 3 mps 772 mmHg 51%
    12:00 +11°C° 0 mm 3 mps 772 mmHg 50%
    13:00 +12°C° 0 mm 3 mps 771 mmHg 50%
    14:00 +12°C° 0 mm 3 mps 770 mmHg 49%
    15:00 +12°C° 0 mm 2 mps 770 mmHg 54%
    16:00 +12°C° 0 mm 2 mps 770 mmHg 58%
    17:00 +10°C° 0 mm 2 mps 770 mmHg 63%
    18:00 +9°C° 0 mm 2 mps 770 mmHg 66%
    19:00 +8°C° 0 mm 2 mps 770 mmHg 70%
    20:00 +7°C° 0 mm 2 mps 771 mmHg 74%
    21:00 +7°C° 0 mm 2 mps 771 mmHg 76%
    22:00 +6°C° 0 mm 2 mps 771 mmHg 78%
    23:00 +6°C° 0 mm 2 mps 771 mmHg 79%

    26 Julio, Viernes

    Tiempo Temperatura Precipitaciones Viento Presión Humedad
    00:00 +6°C° 0 mm 2 mps 771 mmHg 82%
    01:00 +5°C° 0 mm 2 mps 770 mmHg 85%
    02:00 +5°C° 0 mm 2 mps 770 mmHg 89%
    03:00 +5°C° 0 mm 2 mps 770 mmHg 89%
    04:00 +5°C° 0 mm 2 mps 770 mmHg 90%
    05:00 +4°C° 0 mm 2 mps 770 mmHg 91%
    06:00 +5°C° 0 mm 2 mps 770 mmHg 90%
    07:00 +5°C° 0 mm 2 mps 770 mmHg 89%
    08:00 +6°C° 0 mm 2 mps 770 mmHg 88%
    09:00 +8°C° 0 mm 2 mps 770 mmHg 80%
    10:00 +10°C° 0 mm 2 mps 770 mmHg 72%
    11:00 +14°C° 0 mm 2 mps 770 mmHg 64%
    12:00 +15°C° 0 mm 2 mps 770 mmHg 61%
    13:00 +16°C° 0 mm 2 mps 769 mmHg 58%
    14:00 +17°C° 0 mm 2 mps 768 mmHg 55%
    15:00 +16°C° 0 mm 2 mps 768 mmHg 58%
    16:00 +15°C° 0 mm 2 mps 768 mmHg 61%
    17:00 +15°C° 0 mm 2 mps 768 mmHg 64%
    18:00 +14°C° 0 mm 2 mps 768 mmHg 65%
    19:00 +14°C° 0 mm 2 mps 768 mmHg 66%
    20:00 +14°C° 0 mm 2 mps 768 mmHg 67%
    21:00 +12°C° 0 mm 2 mps 769 mmHg 72%
    22:00 +10°C° 0 mm 2 mps 769 mmHg 77%
    23:00 +9°C° 0 mm 2 mps 769 mmHg 81%
    Mostrar más